Weather History for Reidsville, NC

Change the Weather History Date:

Wednesday, March 19, 2014

  Actual Average (KGSO) Record (KGSO)
Temperature  
Mean Temperature 40 °F 51 °F  
Max Temperature 47 °F 62 °F 85 °F (1927)
Min Temperature 34 °F 40 °F 18 °F (1967)
Degree Days  
Heating Degree Days 24 14  
Month to date heating degree days 320  
Since 1 July heating degree days 3175  
Cooling Degree Days 0 0  
Month to date cooling degree days 0  
Year to date cooling degree days 0  
Moisture  
Dew Point 38 °F    
Average Humidity 94    
Maximum Humidity 99    
Minimum Humidity 84    
Precipitation  
Precipitation 0.00 in 0.12 in 1.27 in (1944)
Month to date precipitation 2.28  
Year to date precipitation 8.30  
Snow  
Snow 0.00 in 0.10 in 0.50 in (1947)
Month to date snowfall 0.7  
Since 1 July snowfall 7.4  
Snow Depth -    
Sea Level Pressure  
Sea Level Pressure 30.10 in    
Wind  
Wind Speed 2 mph (WSW)    
Max Wind Speed 12 mph    
Max Gust Speed 21 mph    
Visibility 6 miles    
Events Rain    
T = Trace of Precipitation, MM = Missing Value Source: NWS Daily Summary

Daily Weather History Graph

Daily Weather History Graph

Search for Another Location

Airport:

Trip Planner

Search our weather history database for the weather conditions in past years. The results will help you decide how hot, cold, wet, or windy it might be!

Date:

Astronomy

Mar. 19, 2014 Rise Set
Actual Time 7:24 AM EDT 7:30 PM EDT
Civil Twilight 6:58 AM EDT 7:56 PM EDT
Nautical Twilight 6:28 AM EDT 8:26 PM EDT
Astronomical Twilight 5:58 AM EDT 8:56 PM EDT
Moon 10:41 PM EDT (3/19) 8:54 AM EDT (3/19)
Length of Visible Light 12h 57m
Length of Day
12h 05m
Waning Gibbous, 91% of the Moon is Illuminated
Mar 19
Waning Gibbous
Mar 23
Last Quarter
Mar 30
New
Apr 7
First Quarter
Apr 15
Full

Hourly Weather History & Observations

Time (EDT) Temp. Windchill Dew Point Humidity Pressure Visibility Wind Dir Wind Speed Gust Speed Precip Events Conditions
12:15 AM 35.8 °F 33.0 °F 34.7 °F 96% 30.19 in 3.0 mi NNE 3.5 mph - N/A   Drizzle
12:35 AM 35.8 °F - 34.9 °F 97% 30.20 in 2.0 mi Calm Calm - N/A Rain Rain
12:55 AM 35.6 °F 32.8 °F 34.7 °F 97% 30.19 in 2.0 mi NE 3.5 mph - N/A Rain Heavy Rain
1:15 AM 35.2 °F - 34.7 °F 98% 30.19 in 2.5 mi Calm Calm - N/A   Heavy Drizzle
1:35 AM 35.1 °F 32.2 °F 34.7 °F 99% 30.19 in 2.5 mi NNE 3.5 mph - N/A   Drizzle
1:55 AM 34.7 °F - 34.2 °F 98% 30.19 in 5.0 mi Calm Calm - N/A Rain Rain
2:15 AM 34.7 °F 30.6 °F 34.2 °F 98% 30.19 in 2.5 mi NNE 4.6 mph - N/A   Drizzle
2:35 AM 34.7 °F 31.8 °F 34.0 °F 97% 30.19 in 5.0 mi North 3.5 mph - N/A   Drizzle
2:55 AM 34.7 °F - 34.0 °F 97% 30.19 in 4.0 mi Calm Calm - N/A   Light Drizzle
3:15 AM 34.7 °F - 34.2 °F 98% 30.19 in 5.0 mi Calm Calm - N/A   Heavy Drizzle
3:35 AM 34.7 °F 31.8 °F 34.2 °F 98% 30.19 in 2.5 mi North 3.5 mph - N/A Rain Rain
3:55 AM 34.7 °F - 34.2 °F 98% 30.18 in 5.0 mi Calm Calm - N/A Rain Light Rain
4:15 AM 34.7 °F - 34.2 °F 98% 30.18 in 4.0 mi Calm Calm - N/A Rain Light Rain
4:35 AM 34.7 °F - 34.2 °F 98% 30.18 in 4.0 mi Calm Calm - N/A Rain Light Rain
4:55 AM 34.7 °F - 34.2 °F 98% 30.19 in 2.0 mi Calm Calm - N/A Rain Heavy Rain
5:15 AM 34.7 °F - 34.2 °F 98% 30.19 in 3.0 mi Calm Calm - N/A Rain Light Rain
5:35 AM 34.7 °F - 34.2 °F 98% 30.19 in 5.0 mi Calm Calm - N/A   Overcast
5:55 AM 34.3 °F - 34.0 °F 99% 30.18 in 2.5 mi Calm Calm - N/A Rain Light Rain
6:15 AM 34.3 °F - 34.0 °F 99% 30.18 in 3.0 mi Calm Calm - N/A Rain Light Rain
6:35 AM 34.3 °F 31.4 °F 34.0 °F 99% 30.18 in 5.0 mi NNE 3.5 mph - N/A   Overcast
6:55 AM 34.3 °F - 34.0 °F 99% 30.19 in 4.0 mi Calm Calm - N/A   Overcast
7:15 AM 34.2 °F 31.2 °F 34.0 °F 99% 30.19 in 5.0 mi NNE 3.5 mph - N/A   Overcast
7:35 AM 34.2 °F - 34.0 °F 99% 30.19 in 3.0 mi Calm Calm - N/A   Overcast
7:55 AM 34.2 °F 31.2 °F 34.0 °F 99% 30.18 in 3.0 mi NE 3.5 mph - N/A   Overcast
8:15 AM 34.3 °F - 34.2 °F 99% 30.18 in 2.5 mi Calm Calm - N/A   Overcast
8:35 AM 34.7 °F - 34.3 °F 99% 30.18 in 3.0 mi Calm Calm - N/A   Overcast
8:55 AM 34.9 °F - 34.7 °F 99% 30.18 in 2.5 mi Calm Calm - N/A   Overcast
9:15 AM 35.1 °F - 34.9 °F 99% 30.18 in 2.5 mi Calm Calm - N/A   Overcast
9:35 AM 35.1 °F 32.2 °F 34.9 °F 99% 30.18 in 2.5 mi NE 3.5 mph - N/A   Overcast
9:55 AM 35.4 °F - 35.1 °F 99% 30.18 in 1.5 mi Calm Calm - N/A   Overcast
10:15 AM 36.1 °F - 35.8 °F 99% 30.18 in 1.2 mi Calm Calm - N/A Rain Light Rain
10:35 AM 36.3 °F - 36.0 °F 99% 30.17 in 1.0 mi Calm Calm - N/A Rain Light Rain
10:55 AM 36.7 °F - 36.5 °F 99% 30.17 in 2.0 mi Calm Calm - N/A   Overcast
11:15 AM 37.6 °F - 37.2 °F 99% 30.16 in 4.0 mi Calm Calm - N/A   Overcast
11:35 AM 37.4 °F - 36.9 °F 98% 30.18 in 5.0 mi Calm Calm - N/A   Overcast
11:55 AM 38.5 °F - 37.8 °F 97% 30.16 in 5.0 mi Calm Calm - N/A   Overcast
12:15 PM 38.7 °F - 38.1 °F 98% 30.15 in 4.0 mi Calm Calm - N/A   Overcast
12:35 PM 39.2 °F - 38.3 °F 97% 30.14 in 3.0 mi Calm Calm - N/A   Overcast
12:55 PM 40.3 °F - 39.2 °F 96% 30.12 in 5.0 mi Calm Calm - N/A   Overcast
1:15 PM 40.8 °F - 39.4 °F 95% 30.11 in 7.0 mi Calm Calm - N/A   Overcast
1:35 PM 41.7 °F - 39.9 °F 93% 30.09 in 7.0 mi Calm Calm - N/A   Overcast
1:55 PM 42.3 °F - 40.1 °F 92% 30.08 in 10.0 mi Calm Calm - N/A   Overcast
2:15 PM 43.9 °F 42.3 °F 41.7 °F 92% 30.06 in 10.0 mi South 3.5 mph - N/A   Overcast
2:35 PM 44.1 °F - 41.7 °F 91% 30.04 in 10.0 mi Calm Calm - N/A   Overcast
2:55 PM 44.6 °F 43.1 °F 42.1 °F 91% 30.05 in 10.0 mi WSW 3.5 mph - N/A   Overcast
3:15 PM 45.1 °F 43.7 °F 42.3 °F 90% 30.04 in 10.0 mi WSW 3.5 mph - N/A   Overcast
3:35 PM 45.0 °F - 42.1 °F 90% 30.02 in 10.0 mi Calm Calm - N/A   Overcast
3:55 PM 45.5 °F 44.2 °F 42.3 °F 88% 30.01 in 10.0 mi SW 3.5 mph - N/A   Overcast
4:15 PM 46.4 °F 45.2 °F 43.0 °F 88% 30.01 in 10.0 mi West 3.5 mph - N/A   Overcast
4:35 PM 46.2 °F 43.3 °F 43.0 °F 88% 30.01 in 10.0 mi WSW 5.8 mph - N/A   Overcast
4:55 PM 46.2 °F 44.1 °F 42.8 °F 88% 30.01 in 10.0 mi WSW 4.6 mph - N/A   Overcast
5:15 PM 46.8 °F - 43.3 °F 88% 29.99 in 10.0 mi SSW 5.8 mph - N/A   Overcast
5:35 PM 47.3 °F - 43.7 °F 87% 29.98 in 10.0 mi SSW 4.6 mph - N/A   Overcast
5:55 PM 47.3 °F - 43.3 °F 86% 29.98 in 10.0 mi WSW 5.8 mph - N/A   Overcast
6:15 PM 47.3 °F - 43.5 °F 87% 29.98 in 10.0 mi WSW 8.1 mph - N/A   Overcast
6:35 PM 47.3 °F - 43.3 °F 86% 29.97 in 10.0 mi SW 6.9 mph - N/A   Overcast
6:55 PM 46.9 °F - 43.3 °F 87% 29.97 in 10.0 mi SW 8.1 mph - N/A   Overcast
7:15 PM 47.1 °F - 43.5 °F 87% 29.97 in 10.0 mi SSW 6.9 mph - N/A   Overcast
7:35 PM 47.3 °F - 43.5 °F 87% 29.97 in 10.0 mi SW 9.2 mph - N/A   Overcast
7:55 PM 47.3 °F - 43.2 °F 86% 29.96 in 10.0 mi SW 9.2 mph 17.3 mph N/A   Overcast
8:15 PM 47.3 °F - 42.8 °F 84% 29.97 in 10.0 mi SW 10.4 mph 18.4 mph N/A   Overcast
8:35 PM 47.3 °F - 42.8 °F 84% 29.96 in 10.0 mi SW 9.2 mph 20.7 mph N/A   Overcast
8:55 PM 47.3 °F - 42.8 °F 84% 29.97 in 10.0 mi WSW 11.5 mph 18.4 mph N/A   Overcast
9:15 PM 47.3 °F - 43.0 °F 85% 29.98 in 10.0 mi WSW 10.4 mph - N/A   Overcast
9:35 PM 46.9 °F - 43.0 °F 86% 29.98 in 10.0 mi WSW 8.1 mph - N/A   Overcast
9:55 PM 46.9 °F - 43.2 °F 87% 29.98 in 10.0 mi SW 5.8 mph - N/A   Overcast
10:15 PM 46.4 °F 43.5 °F 43.0 °F 88% 29.98 in 10.0 mi SW 5.8 mph - N/A   Overcast
10:35 PM 45.9 °F 42.9 °F 42.8 °F 89% 29.97 in 10.0 mi SW 5.8 mph - N/A   Scattered Clouds
10:55 PM 45.0 °F 41.8 °F 42.6 °F 91% 29.97 in 10.0 mi SW 5.8 mph - N/A   Clear
11:15 PM 44.6 °F 41.4 °F 42.4 °F 92% 29.97 in 10.0 mi SW 5.8 mph - N/A   Clear
11:35 PM 44.1 °F 40.1 °F 42.4 °F 94% 29.96 in 7.0 mi SW 6.9 mph - N/A   Clear
11:55 PM 43.7 °F 39.7 °F 42.3 °F 95% 29.95 in 7.0 mi SW 6.9 mph - N/A   Clear